User: anonymous   Login
Location: Caltech
(34.1382°N, 118.1253°W)
Time: 09:12:02
(UTC-07:00)
Language:

PANSAT - Orbit

View from above orbital plane
View from above orbital plane
View from above satellite
View from above satellite

Ground track
Ground track

The orbit data is extracted from the following two-line orbital elements,

1 25520U 98064B   17291.95948803 +.00001051 +00000-0 +28950-4 0  9992
2 25520 028.4546 221.2669 0004919 296.7531 063.2561 15.28561461052930
Epoch (UTC): 18 October 2017 23:01:39
Eccentricity: 0.0004919
inclination: 28.4546°
perigee height: 477 km
apogee height: 483 km
right ascension of ascending node: 221.2669°
argument of perigee: 296.7531°
revolutions per day: 15.28561461
mean anomaly at epoch: 63.2561°
orbit number at epoch: 5293

The dashed part of the orbit path shows where the satellite is in the earth's shadow,  

DLR